COSMOS 2374 (GLONASS)

Satellite information

Favourite Embed

Satellite Type and Status

PAYLOADIN ORBIT

Key statistics

Satellite COSMOS 2374 (GLONASS) at a glance.

Uptime

9034

Days in orbit

Revolutions

≈ 2.1

Per day

Orbit

MEO

Medium Earth Orbit

Inclination

65.4

Latest

Satellite identification and parameters

Extended collection of information and parameters for COSMOS 2374 (GLONASS).

Object identification

Identified? True

Debris? False

Object name: COSMOS 2374 (GLONASS)

International designator: 2000-063C

Object number (NORAD): 26566

Object ID (CCSDS): 26566

Country: COMMONWEALTH OF INDEPENDENT STATES (CIS)

Current information (Y/N): Y

RCS size: LARGE

Orbital parameters

Period: 675.74 minutes

Inclination: 65.3758 deg

SMA: 25508.203 km

Apoapsis: 19326.941 km

Periapsis: 18933.196 km

RAAN: 325.3801 deg

Eccentricy: 0.007718

Argument of periapsis: 210.5728 deg

Mean anomaly: 146.6235 deg

Mean motion: 2.13099756 rev/day

Mean motion (dot): -0.00000078 rev/day2

B* drag term: 0.0 1/REarth

Two-line elements (TLE)

Creation date: July 6, 2025, 4:10 a.m.

Reference frame: TEME

Reference center: EARTH

Epoch: July 5, 2025, 4:03 p.m. UTC

TLE line 0: 0 COSMOS 2374 (GLONASS)

TLE line 1: 1 26566U 00063C 25186.66898751 -.00000078 00000-0 00000-0 0 9992

TLE line 2: 2 26566 65.3758 325.3801 0077180 210.5728 146.6235 2.13099756192361

Live tracking on map

Real-time ground track for satellite COSMOS 2374 (GLONASS).

In-orbit conjunctions

A list of the most updated potential collisions computed for object COSMOS 2374 (GLONASS).

Target Orbit TCA Probability of collision Miss distance Type
COSMOS 2294 (GLONASS) MEO 2025-02-02 14:49:07 TBA 3137.0 (m) PAYLOAD
COSMOS 2294 (GLONASS) MEO 2025-02-02 03:33:23 TBA 1822.0 (m) PAYLOAD
COSMOS 2294 (GLONASS) MEO 2025-02-01 16:17:38 TBA 2519.0 (m) PAYLOAD
COSMOS 2294 (GLONASS) MEO 2025-02-01 05:01:54 TBA 4348.0 (m) PAYLOAD
COSMOS 2294 (GLONASS) MEO 2025-01-31 17:46:09 TBA 4747.0 (m) PAYLOAD

Associated space launch

GLONASS navigation satellites

COSMOS 2374 (GLONASS) was lifted into orbit during the mission ‘Proton | Uragan 75 to 77’, on board a Proton space rocket.

The launch took place on Oct. 13, 2000, 2:12 p.m. from 81/24 (81P).

For more information about the launch, click the button.

Launch to space Proton | Uragan 75 to 77
Proton | Uragan 75 to 77

Agency: N/A

Status: Launch Successful

Launch date: Oct. 13, 2000, 2:12 p.m. UTC

Rocket: Proton

Launch pad: 81/24 (81P)

Location: Baikonur Cosmodrome, Republic of Kazakhstan

...

Latest news about this satellite

There are no fresh news available about this satellite. Check back as we update our databases every day.


Newsletter sign-up

Weekly statistics, charts and insights to help you stay on top of the space industry.